Time,TemperatureF,DewpointF,PressureIn,WindDirection,WindDirectionDegrees,WindSpeedMPH,WindSpeedGustMPH,Humidity,HourlyPrecipIn,Conditions,Clouds,dailyrainin,SoftwareType,DateUTC
2013-02-14 00:00:00,40.1,35.0,29.89,ENE,68,0.0,-999.0,82,0.00,,,0.00,Wunderground v.1.15,2013-02-14 05:00:00,
2013-02-14 00:05:00,40.1,35.0,29.89,ENE,68,0.0,-999.0,82,0.00,,,0.00,Wunderground v.1.15,2013-02-14 05:05:00,
2013-02-14 00:10:00,40.1,35.0,29.89,ENE,68,0.0,-999.0,82,0.00,,,0.00,Wunderground v.1.15,2013-02-14 05:10:00,
2013-02-14 00:15:00,40.1,35.0,29.89,ENE,68,0.0,-999.0,82,0.00,,,0.00,Wunderground v.1.15,2013-02-14 05:15:00,
2013-02-14 00:20:00,40.1,35.0,29.89,ENE,68,0.0,-999.0,82,0.00,,,0.00,Wunderground v.1.15,2013-02-14 05:20:00,
2013-02-14 00:25:00,40.1,35.0,29.89,ENE,68,0.0,-999.0,82,0.00,,,0.00,Wunderground v.1.15,2013-02-14 05:25:00,
2013-02-14 00:30:00,40.1,35.0,29.89,ENE,68,0.0,-999.0,82,0.00,,,0.00,Wunderground v.1.15,2013-02-14 05:30:00,
2013-02-14 00:35:00,40.1,35.0,29.89,ENE,68,0.0,-999.0,82,0.00,,,0.00,Wunderground v.1.15,2013-02-14 05:35:00,
2013-02-14 00:40:00,40.1,35.0,29.89,ENE,68,0.0,-999.0,82,0.00,,,0.00,Wunderground v.1.15,2013-02-14 05:40:00,
2013-02-14 00:45:00,38.8,34.4,29.90,ENE,68,0.0,-999.0,84,0.00,,,0.00,Wunderground v.1.15,2013-02-14 05:45:00,
2013-02-14 00:50:00,38.8,34.4,29.90,ENE,68,0.0,-999.0,84,0.00,,,0.00,Wunderground v.1.15,2013-02-14 05:50:00,
2013-02-14 00:55:00,38.8,34.4,29.90,ENE,68,0.0,-999.0,84,0.00,,,0.00,Wunderground v.1.15,2013-02-14 05:55:00,
2013-02-14 01:00:00,38.8,34.4,29.90,ENE,68,0.0,-999.0,84,0.00,,,0.00,Wunderground v.1.15,2013-02-14 06:00:00,
2013-02-14 01:05:00,38.8,34.4,29.90,ENE,68,0.0,-999.0,84,0.00,,,0.00,Wunderground v.1.15,2013-02-14 06:05:00,
2013-02-14 01:10:00,38.8,34.4,29.90,ENE,68,0.0,-999.0,84,0.00,,,0.00,Wunderground v.1.15,2013-02-14 06:10:00,
2013-02-14 01:15:00,37.5,34.0,29.90,N/A,-737280,0.0,-999.0,87,0.00,,,0.00,Wunderground v.1.15,2013-02-14 06:15:00,
2013-02-14 01:20:00,37.5,34.0,29.90,N/A,-737280,0.0,-999.0,87,0.00,,,0.00,Wunderground v.1.15,2013-02-14 06:20:00,
2013-02-14 01:25:00,37.5,34.0,29.90,N/A,-737280,0.0,-999.0,87,0.00,,,0.00,Wunderground v.1.15,2013-02-14 06:25:00,
2013-02-14 01:30:00,37.5,34.0,29.90,N/A,-737280,0.0,-999.0,87,0.00,,,0.00,Wunderground v.1.15,2013-02-14 06:30:00,
2013-02-14 01:35:00,37.5,34.0,29.90,N/A,-737280,0.0,-999.0,87,0.00,,,0.00,Wunderground v.1.15,2013-02-14 06:35:00,
2013-02-14 01:40:00,37.5,34.0,29.90,N/A,-737280,0.0,-999.0,87,0.00,,,0.00,Wunderground v.1.15,2013-02-14 06:40:00,
2013-02-14 01:45:00,37.1,33.6,29.91,ENE,68,0.0,-999.0,87,0.00,,,0.00,Wunderground v.1.15,2013-02-14 06:45:00,
2013-02-14 01:50:00,37.1,33.6,29.91,ENE,68,0.0,-999.0,87,0.00,,,0.00,Wunderground v.1.15,2013-02-14 06:50:00,
2013-02-14 01:55:00,37.1,33.6,29.91,ENE,68,0.0,-999.0,87,0.00,,,0.00,Wunderground v.1.15,2013-02-14 06:55:00,
2013-02-14 02:00:00,37.1,33.6,29.91,ENE,68,0.0,-999.0,87,0.00,,,0.00,Wunderground v.1.15,2013-02-14 07:00:00,
2013-02-14 02:05:00,37.1,33.6,29.91,ENE,68,0.0,-999.0,87,0.00,,,0.00,Wunderground v.1.15,2013-02-14 07:05:00,
2013-02-14 02:10:00,37.1,33.6,29.91,ENE,68,0.0,-999.0,87,0.00,,,0.00,Wunderground v.1.15,2013-02-14 07:10:00,
2013-02-14 02:15:00,37.0,34.1,29.91,ENE,68,0.0,-999.0,89,0.00,,,0.00,Wunderground v.1.15,2013-02-14 07:15:00,
2013-02-14 02:20:00,37.0,34.1,29.91,ENE,68,0.0,-999.0,89,0.00,,,0.00,Wunderground v.1.15,2013-02-14 07:20:00,
2013-02-14 02:25:00,37.0,34.1,29.91,ENE,68,0.0,-999.0,89,0.00,,,0.00,Wunderground v.1.15,2013-02-14 07:25:00,
2013-02-14 02:30:00,37.0,34.1,29.91,ENE,68,0.0,-999.0,89,0.00,,,0.00,Wunderground v.1.15,2013-02-14 07:30:00,
2013-02-14 02:35:00,37.0,34.1,29.91,ENE,68,0.0,-999.0,89,0.00,,,0.00,Wunderground v.1.15,2013-02-14 07:35:00,
2013-02-14 02:40:00,37.0,34.1,29.91,ENE,68,0.0,-999.0,89,0.00,,,0.00,Wunderground v.1.15,2013-02-14 07:40:00,
2013-02-14 02:45:00,38.1,34.6,29.92,SW,225,0.0,-999.0,87,0.00,,,0.00,Wunderground v.1.15,2013-02-14 07:45:00,
2013-02-14 02:50:00,38.1,34.6,29.92,SW,225,0.0,-999.0,87,0.00,,,0.00,Wunderground v.1.15,2013-02-14 07:50:00,
2013-02-14 02:55:00,38.1,34.6,29.92,SW,225,0.0,-999.0,87,0.00,,,0.00,Wunderground v.1.15,2013-02-14 07:55:00,
2013-02-14 03:00:00,38.1,34.6,29.92,SW,225,0.0,-999.0,87,0.00,,,0.00,Wunderground v.1.15,2013-02-14 08:00:00,
2013-02-14 03:05:00,38.1,34.6,29.92,SW,225,0.0,-999.0,87,0.00,,,0.00,Wunderground v.1.15,2013-02-14 08:05:00,
2013-02-14 03:10:00,38.1,34.6,29.92,SW,225,0.0,-999.0,87,0.00,,,0.00,Wunderground v.1.15,2013-02-14 08:10:00,
2013-02-14 03:15:00,37.7,33.6,29.93,SSW,203,0.0,-999.0,85,0.00,,,0.00,Wunderground v.1.15,2013-02-14 08:15:00,
2013-02-14 03:20:00,37.7,33.6,29.93,SSW,203,0.0,-999.0,85,0.00,,,0.00,Wunderground v.1.15,2013-02-14 08:20:00,
2013-02-14 03:25:00,37.7,33.6,29.93,SSW,203,0.0,-999.0,85,0.00,,,0.00,Wunderground v.1.15,2013-02-14 08:25:00,
2013-02-14 03:30:00,37.7,33.6,29.93,SSW,203,0.0,-999.0,85,0.00,,,0.00,Wunderground v.1.15,2013-02-14 08:30:00,
2013-02-14 03:35:00,37.7,33.6,29.93,SSW,203,0.0,-999.0,85,0.00,,,0.00,Wunderground v.1.15,2013-02-14 08:35:00,
2013-02-14 03:40:00,37.7,33.6,29.93,SSW,203,0.0,-999.0,85,0.00,,,0.00,Wunderground v.1.15,2013-02-14 08:40:00,
2013-02-14 03:45:00,37.3,33.2,29.93,SW,225,0.0,-999.0,85,0.00,,,0.00,Wunderground v.1.15,2013-02-14 08:45:00,
2013-02-14 03:50:00,37.3,33.2,29.93,SW,225,0.0,-999.0,85,0.00,,,0.00,Wunderground v.1.15,2013-02-14 08:50:00,
2013-02-14 03:55:00,37.3,33.2,29.93,SW,225,0.0,-999.0,85,0.00,,,0.00,Wunderground v.1.15,2013-02-14 08:55:00,
2013-02-14 04:00:00,37.3,33.2,29.93,SW,225,0.0,-999.0,85,0.00,,,0.00,Wunderground v.1.15,2013-02-14 09:00:00,
2013-02-14 04:05:00,37.3,33.2,29.93,SW,225,0.0,-999.0,85,0.00,,,0.00,Wunderground v.1.15,2013-02-14 09:05:00,
2013-02-14 04:10:00,37.3,33.2,29.93,SW,225,0.0,-999.0,85,0.00,,,0.00,Wunderground v.1.15,2013-02-14 09:10:00,
2013-02-14 04:15:00,36.6,32.5,29.95,SW,225,0.0,-999.0,85,0.00,,,0.00,Wunderground v.1.15,2013-02-14 09:15:00,
2013-02-14 04:20:00,36.6,32.5,29.95,SW,225,0.0,-999.0,85,0.00,,,0.00,Wunderground v.1.15,2013-02-14 09:20:00,
2013-02-14 04:25:00,36.6,32.5,29.95,SW,225,0.0,-999.0,85,0.00,,,0.00,Wunderground v.1.15,2013-02-14 09:25:00,
2013-02-14 04:30:00,36.6,32.5,29.95,SW,225,0.0,-999.0,85,0.00,,,0.00,Wunderground v.1.15,2013-02-14 09:30:00,
2013-02-14 04:35:00,36.6,32.5,29.95,SW,225,0.0,-999.0,85,0.00,,,0.00,Wunderground v.1.15,2013-02-14 09:35:00,
2013-02-14 04:40:00,36.6,32.5,29.95,SW,225,0.0,-999.0,85,0.00,,,0.00,Wunderground v.1.15,2013-02-14 09:40:00,
2013-02-14 04:45:00,35.7,31.9,29.96,SW,225,0.0,-999.0,86,0.00,,,0.00,Wunderground v.1.15,2013-02-14 09:45:00,
2013-02-14 04:50:00,35.7,31.9,29.96,SW,225,0.0,-999.0,86,0.00,,,0.00,Wunderground v.1.15,2013-02-14 09:50:00,
2013-02-14 04:55:00,35.7,31.9,29.96,SW,225,0.0,-999.0,86,0.00,,,0.00,Wunderground v.1.15,2013-02-14 09:55:00,
2013-02-14 05:00:00,35.7,31.9,29.96,SW,225,0.0,-999.0,86,0.00,,,0.00,Wunderground v.1.15,2013-02-14 10:00:00,
2013-02-14 05:05:00,35.7,31.9,29.96,SW,225,0.0,-999.0,86,0.00,,,0.00,Wunderground v.1.15,2013-02-14 10:05:00,
2013-02-14 05:10:00,35.7,31.9,29.96,SW,225,0.0,-999.0,86,0.00,,,0.00,Wunderground v.1.15,2013-02-14 10:10:00,
2013-02-14 05:15:00,34.5,31.3,29.97,SW,225,0.0,-999.0,88,0.00,,,0.00,Wunderground v.1.15,2013-02-14 10:15:00,
2013-02-14 05:20:00,34.5,31.3,29.97,SW,225,0.0,-999.0,88,0.00,,,0.00,Wunderground v.1.15,2013-02-14 10:20:00,
2013-02-14 05:25:00,34.5,31.3,29.97,SW,225,0.0,-999.0,88,0.00,,,0.00,Wunderground v.1.15,2013-02-14 10:25:00,
2013-02-14 05:30:00,34.5,31.3,29.97,SW,225,0.0,-999.0,88,0.00,,,0.00,Wunderground v.1.15,2013-02-14 10:30:00,
2013-02-14 05:35:00,34.5,31.3,29.97,SW,225,0.0,-999.0,88,0.00,,,0.00,Wunderground v.1.15,2013-02-14 10:35:00,
2013-02-14 05:40:00,34.5,31.3,29.97,SW,225,0.0,-999.0,88,0.00,,,0.00,Wunderground v.1.15,2013-02-14 10:40:00,
2013-02-14 05:45:00,34.3,31.4,29.98,SW,225,0.0,-999.0,89,0.00,,,0.00,Wunderground v.1.15,2013-02-14 10:45:00,
2013-02-14 05:50:00,34.3,31.4,29.98,SW,225,0.0,-999.0,89,0.00,,,0.00,Wunderground v.1.15,2013-02-14 10:50:00,
2013-02-14 05:55:00,34.3,31.4,29.98,SW,225,0.0,-999.0,89,0.00,,,0.00,Wunderground v.1.15,2013-02-14 10:55:00,
2013-02-14 06:00:00,34.3,31.4,29.98,SW,225,0.0,-999.0,89,0.00,,,0.00,Wunderground v.1.15,2013-02-14 11:00:00,
2013-02-14 06:05:00,34.3,31.4,29.98,SW,225,0.0,-999.0,89,0.00,,,0.00,Wunderground v.1.15,2013-02-14 11:05:00,
2013-02-14 06:10:00,34.3,31.4,29.98,SW,225,0.0,-999.0,89,0.00,,,0.00,Wunderground v.1.15,2013-02-14 11:10:00,
2013-02-14 06:15:00,33.8,31.2,29.99,SW,225,0.0,-999.0,90,0.00,,,0.00,Wunderground v.1.15,2013-02-14 11:15:00,
2013-02-14 06:20:00,33.8,31.2,29.99,SW,225,0.0,-999.0,90,0.00,,,0.00,Wunderground v.1.15,2013-02-14 11:20:00,
2013-02-14 06:25:00,33.8,31.2,29.99,SW,225,0.0,-999.0,90,0.00,,,0.00,Wunderground v.1.15,2013-02-14 11:25:00,
2013-02-14 06:30:00,33.8,31.2,29.99,SW,225,0.0,-999.0,90,0.00,,,0.00,Wunderground v.1.15,2013-02-14 11:30:00,
2013-02-14 06:35:00,33.8,31.2,29.99,SW,225,0.0,-999.0,90,0.00,,,0.00,Wunderground v.1.15,2013-02-14 11:35:00,
2013-02-14 06:40:00,33.8,31.2,29.99,SW,225,0.0,-999.0,90,0.00,,,0.00,Wunderground v.1.15,2013-02-14 11:40:00,
2013-02-14 06:45:00,33.2,30.9,30.00,SW,225,0.0,-999.0,91,0.00,,,0.00,Wunderground v.1.15,2013-02-14 11:45:00,
2013-02-14 06:50:00,33.2,30.9,30.00,SW,225,0.0,-999.0,91,0.00,,,0.00,Wunderground v.1.15,2013-02-14 11:50:00,
2013-02-14 06:55:00,33.2,30.9,30.00,SW,225,0.0,-999.0,91,0.00,,,0.00,Wunderground v.1.15,2013-02-14 11:55:00,
2013-02-14 07:00:00,33.2,30.9,30.00,SW,225,0.0,-999.0,91,0.00,,,0.00,Wunderground v.1.15,2013-02-14 12:00:00,
2013-02-14 07:30:00,32.9,30.6,30.01,SW,233,0.0,0.0,91,0.00,,,0.00,Wunderground v.1.15,2013-02-14 12:30:00,
2013-02-14 07:35:00,32.9,30.6,30.01,SW,233,0.0,0.0,91,0.00,,,0.00,Wunderground v.1.15,2013-02-14 12:35:00,
2013-02-14 07:40:00,33.0,30.9,30.02,SW,233,0.0,0.0,92,0.00,,,0.00,Wunderground v.1.15,2013-02-14 12:40:00,
2013-02-14 07:45:00,33.2,31.1,30.02,SW,234,0.0,0.0,92,0.00,,,0.00,Wunderground v.1.15,2013-02-14 12:45:00,
2013-02-14 07:50:00,33.3,31.2,30.02,SW,234,0.0,0.0,92,0.00,,,0.00,Wunderground v.1.15,2013-02-14 12:50:00,
2013-02-14 07:55:00,33.5,31.4,30.03,SW,234,0.0,0.0,92,0.00,,,0.00,Wunderground v.1.15,2013-02-14 12:55:00,
2013-02-14 08:00:00,33.6,31.5,30.03,SW,234,0.0,0.0,92,0.00,,,0.00,Wunderground v.1.15,2013-02-14 13:00:00,
2013-02-14 08:05:00,33.7,31.6,30.04,SW,234,0.0,1.0,92,0.00,,,0.00,Wunderground v.1.15,2013-02-14 13:05:00,
2013-02-14 08:10:00,33.9,31.8,30.04,SW,234,0.0,1.0,92,0.00,,,0.00,Wunderground v.1.15,2013-02-14 13:10:00,
2013-02-14 08:15:00,34.2,32.1,30.05,SW,234,0.0,1.0,92,0.00,,,0.00,Wunderground v.1.15,2013-02-14 13:15:00,
2013-02-14 08:20:00,35.0,33.2,30.05,SW,234,0.0,1.0,93,0.00,,,0.00,Wunderground v.1.15,2013-02-14 13:20:00,
2013-02-14 08:25:00,35.4,33.3,30.06,SW,234,0.0,1.0,92,0.00,,,0.00,Wunderground v.1.15,2013-02-14 13:25:00,
2013-02-14 08:30:00,36.0,33.6,30.06,SW,234,0.0,1.0,91,0.00,,,0.00,Wunderground v.1.15,2013-02-14 13:30:00,
2013-02-14 08:35:00,36.5,34.1,30.06,SW,234,0.0,1.0,91,0.00,,,0.00,Wunderground v.1.15,2013-02-14 13:35:00,
2013-02-14 08:40:00,36.7,34.0,30.07,SW,234,0.0,1.0,90,0.00,,,0.00,Wunderground v.1.15,2013-02-14 13:40:00,
2013-02-14 08:45:00,37.1,34.4,30.06,SW,234,0.0,1.0,90,0.00,,,0.00,Wunderground v.1.15,2013-02-14 13:45:00,
2013-02-14 08:50:00,37.5,34.8,30.07,SW,234,0.0,1.0,90,0.00,,,0.00,Wunderground v.1.15,2013-02-14 13:50:00,
2013-02-14 08:55:00,37.9,35.2,30.06,SW,234,0.0,1.0,90,0.00,,,0.00,Wunderground v.1.15,2013-02-14 13:55:00,
2013-02-14 09:00:00,38.4,35.7,30.06,SW,234,0.0,2.0,90,0.00,,,0.00,Wunderground v.1.15,2013-02-14 14:00:00,
2013-02-14 09:05:00,38.9,35.9,30.06,SW,234,1.0,2.0,89,0.00,,,0.00,Wunderground v.1.15,2013-02-14 14:05:00,
2013-02-14 09:10:00,39.5,35.7,30.06,WSW,246,1.0,4.0,86,0.00,,,0.00,Wunderground v.1.15,2013-02-14 14:10:00,
2013-02-14 09:15:00,39.8,35.4,30.06,WSW,246,1.0,4.0,84,0.00,,,0.00,Wunderground v.1.15,2013-02-14 14:15:00,
2013-02-14 09:20:00,40.3,35.5,30.06,NW,308,1.0,2.0,83,0.00,,,0.00,Wunderground v.1.15,2013-02-14 14:20:00,
2013-02-14 09:25:00,40.8,36.0,30.06,West,268,1.0,2.0,83,0.00,,,0.00,Wunderground v.1.15,2013-02-14 14:25:00,
2013-02-14 09:30:00,41.6,36.2,30.07,SW,231,1.0,1.0,81,0.00,,,0.00,Wunderground v.1.15,2013-02-14 14:30:00,
2013-02-14 09:35:00,42.2,36.5,30.07,SW,229,1.0,1.0,80,0.00,,,0.00,Wunderground v.1.15,2013-02-14 14:35:00,
2013-02-14 09:40:00,42.5,36.4,30.06,WSW,243,1.0,1.0,79,0.00,,,0.00,Wunderground v.1.15,2013-02-14 14:40:00,
2013-02-14 09:45:00,42.6,35.9,30.06,WSW,242,1.0,1.0,77,0.00,,,0.00,Wunderground v.1.15,2013-02-14 14:45:00,
2013-02-14 09:50:00,42.8,35.4,30.06,WSW,239,2.0,2.0,75,0.00,,,0.00,Wunderground v.1.15,2013-02-14 14:50:00,
2013-02-14 09:55:00,42.9,34.8,30.07,WSW,245,2.0,5.0,73,0.00,,,0.00,Wunderground v.1.15,2013-02-14 14:55:00,
2013-02-14 10:00:00,42.9,34.8,30.06,WSW,249,3.0,3.0,73,0.00,,,0.00,Wunderground v.1.15,2013-02-14 15:00:00,
2013-02-14 10:05:00,43.1,35.0,30.07,WSW,244,3.0,3.0,73,0.00,,,0.00,Wunderground v.1.15,2013-02-14 15:05:00,
2013-02-14 10:10:00,43.3,34.9,30.06,WSW,250,4.0,4.0,72,0.00,,,0.00,Wunderground v.1.15,2013-02-14 15:10:00,
2013-02-14 10:15:00,43.5,35.4,30.06,WSW,239,3.0,5.0,73,0.00,,,0.00,Wunderground v.1.15,2013-02-14 15:15:00,
2013-02-14 10:20:00,43.6,35.5,30.06,WSW,243,2.0,2.0,73,0.00,,,0.00,Wunderground v.1.15,2013-02-14 15:20:00,
2013-02-14 10:25:00,44.2,35.4,30.06,WSW,244,3.0,3.0,71,0.00,,,0.00,Wunderground v.1.15,2013-02-14 15:25:00,
2013-02-14 10:30:00,44.3,34.4,30.07,West,267,4.0,4.0,68,0.00,,,0.00,Wunderground v.1.15,2013-02-14 15:30:00,
2013-02-14 10:35:00,44.2,34.3,30.06,West,263,4.0,4.0,68,0.00,,,0.00,Wunderground v.1.15,2013-02-14 15:35:00,
2013-02-14 10:40:00,44.2,34.3,30.06,SW,235,3.0,3.0,68,0.00,,,0.00,Wunderground v.1.15,2013-02-14 15:40:00,
2013-02-14 10:45:00,44.6,35.1,30.07,WSW,248,3.0,3.0,69,0.00,,,0.00,Wunderground v.1.15,2013-02-14 15:45:00,
2013-02-14 10:50:00,45.4,36.9,30.07,WSW,237,2.0,5.0,72,0.00,,,0.00,Wunderground v.1.15,2013-02-14 15:50:00,
2013-02-14 10:55:00,45.0,34.7,30.07,SW,235,2.0,5.0,67,0.00,,,0.00,Wunderground v.1.15,2013-02-14 15:55:00,
2013-02-14 11:00:00,45.2,36.4,30.06,SW,235,2.0,2.0,71,0.00,,,0.00,Wunderground v.1.15,2013-02-14 16:00:00,
2013-02-14 11:05:00,45.8,36.2,30.06,WSW,248,1.0,3.0,69,0.00,,,0.00,Wunderground v.1.15,2013-02-14 16:05:00,
2013-02-14 11:10:00,46.1,36.1,30.05,NE,38,0.0,3.0,68,0.00,,,0.00,Wunderground v.1.15,2013-02-14 16:10:00,
2013-02-14 11:15:00,46.2,36.2,30.06,North,9,0.0,3.0,68,0.00,,,0.00,Wunderground v.1.15,2013-02-14 16:15:00,
2013-02-14 11:20:00,46.3,36.3,30.06,SW,226,1.0,1.0,68,0.00,,,0.00,Wunderground v.1.15,2013-02-14 16:20:00,
2013-02-14 11:25:00,46.9,38.0,30.06,SW,221,1.0,2.0,71,0.00,,,0.00,Wunderground v.1.15,2013-02-14 16:25:00,
2013-02-14 11:30:00,47.7,37.3,30.07,SSW,197,1.0,3.0,67,0.00,,,0.00,Wunderground v.1.15,2013-02-14 16:30:00,
2013-02-14 11:35:00,48.2,37.8,30.07,South,191,1.0,3.0,67,0.00,,,0.00,Wunderground v.1.15,2013-02-14 16:35:00,
2013-02-14 11:40:00,48.5,36.1,30.07,SSW,208,1.0,3.0,62,0.00,,,0.00,Wunderground v.1.15,2013-02-14 16:40:00,
2013-02-14 11:45:00,48.6,36.2,30.07,SE,141,1.0,3.0,62,0.00,,,0.00,Wunderground v.1.15,2013-02-14 16:45:00,
2013-02-14 11:50:00,48.7,36.7,30.07,SSE,167,1.0,3.0,63,0.00,,,0.00,Wunderground v.1.15,2013-02-14 16:50:00,
2013-02-14 11:55:00,47.9,35.5,30.07,West,262,1.0,3.0,62,0.00,,,0.00,Wunderground v.1.15,2013-02-14 16:55:00,
2013-02-14 12:00:00,47.2,34.8,30.06,ENE,64,1.0,3.0,62,0.00,,,0.00,Wunderground v.1.15,2013-02-14 17:00:00,
2013-02-14 12:05:00,47.1,35.1,30.06,NE,53,1.0,3.0,63,0.00,,,0.00,Wunderground v.1.15,2013-02-14 17:05:00,
2013-02-14 12:10:00,47.5,36.3,30.06,SW,230,1.0,3.0,65,0.00,,,0.00,Wunderground v.1.15,2013-02-14 17:10:00,
2013-02-14 12:15:00,48.1,36.1,30.06,South,186,1.0,3.0,63,0.00,,,0.00,Wunderground v.1.15,2013-02-14 17:15:00,
2013-02-14 12:20:00,48.8,37.2,30.06,SW,229,0.0,3.0,64,0.00,,,0.00,Wunderground v.1.15,2013-02-14 17:20:00,
2013-02-14 12:25:00,49.2,36.7,30.06,SSE,157,1.0,3.0,62,0.00,,,0.00,Wunderground v.1.15,2013-02-14 17:25:00,
2013-02-14 12:30:00,49.3,36.8,30.06,South,188,1.0,3.0,62,0.00,,,0.00,Wunderground v.1.15,2013-02-14 17:30:00,
2013-02-14 12:35:00,49.0,35.7,30.06,NNE,17,1.0,3.0,60,0.00,,,0.00,Wunderground v.1.15,2013-02-14 17:35:00,
2013-02-14 12:40:00,48.8,35.9,30.06,SSW,194,1.0,1.0,61,0.00,,,0.00,Wunderground v.1.15,2013-02-14 17:40:00,
2013-02-14 12:45:00,48.8,36.8,30.05,SSW,196,0.0,3.0,63,0.00,,,0.00,Wunderground v.1.15,2013-02-14 17:45:00,
2013-02-14 12:50:00,49.0,36.5,30.05,West,273,1.0,3.0,62,0.00,,,0.00,Wunderground v.1.15,2013-02-14 17:50:00,
2013-02-14 12:55:00,49.6,37.9,30.05,SSW,194,0.0,3.0,64,0.00,,,0.01,Wunderground v.1.15,2013-02-14 17:55:00,
2013-02-14 13:00:00,50.5,37.1,30.04,SSE,163,0.0,3.0,60,0.00,,,0.01,Wunderground v.1.15,2013-02-14 18:00:00,
2013-02-14 13:10:00,50.8,36.5,30.05,SSW,203,1.0,3.0,58,0.00,,,0.01,Wunderground v.1.15,2013-02-14 18:10:00,
2013-02-14 13:15:00,50.9,37.1,30.05,SSE,159,1.0,3.0,59,0.00,,,0.01,Wunderground v.1.15,2013-02-14 18:15:00,
2013-02-14 13:20:00,51.3,37.0,30.05,South,178,1.0,3.0,58,0.00,,,0.01,Wunderground v.1.15,2013-02-14 18:20:00,
2013-02-14 13:25:00,51.5,37.6,30.04,West,265,0.0,3.0,59,0.00,,,0.01,Wunderground v.1.15,2013-02-14 18:25:00,
2013-02-14 13:30:00,51.5,35.9,30.03,SSE,167,1.0,1.0,55,0.00,,,0.01,Wunderground v.1.15,2013-02-14 18:30:00,
2013-02-14 13:35:00,51.2,36.0,30.03,SE,146,1.0,3.0,56,0.00,,,0.01,Wunderground v.1.15,2013-02-14 18:35:00,
2013-02-14 13:40:00,51.0,35.8,30.02,SW,214,1.0,1.0,56,0.00,,,0.01,Wunderground v.1.15,2013-02-14 18:40:00,
2013-02-14 13:45:00,50.9,36.6,30.02,East,92,1.0,3.0,58,0.00,,,0.01,Wunderground v.1.15,2013-02-14 18:45:00,
2013-02-14 13:50:00,51.2,36.9,30.02,ESE,119,1.0,1.0,58,0.00,,,0.01,Wunderground v.1.15,2013-02-14 18:50:00,
2013-02-14 13:55:00,51.4,37.1,30.01,SSW,202,1.0,3.0,58,0.00,,,0.01,Wunderground v.1.15,2013-02-14 18:55:00,
2013-02-14 14:00:00,51.6,36.9,30.01,SE,142,1.0,1.0,57,0.00,,,0.01,Wunderground v.1.15,2013-02-14 19:00:00,
2013-02-14 14:05:00,51.7,37.4,30.02,SSW,198,1.0,3.0,58,0.00,,,0.01,Wunderground v.1.15,2013-02-14 19:05:00,
2013-02-14 14:10:00,51.8,36.6,30.01,SE,141,1.0,1.0,56,0.00,,,0.01,Wunderground v.1.15,2013-02-14 19:10:00,
2013-02-14 14:15:00,51.8,35.7,30.01,SSE,148,1.0,2.0,54,0.00,,,0.01,Wunderground v.1.15,2013-02-14 19:15:00,
2013-02-14 14:20:00,51.7,35.1,30.01,SW,229,1.0,1.0,53,0.00,,,0.01,Wunderground v.1.15,2013-02-14 19:20:00,
2013-02-14 14:25:00,51.6,35.9,30.01,South,191,1.0,2.0,55,0.00,,,0.01,Wunderground v.1.15,2013-02-14 19:25:00,
2013-02-14 14:30:00,51.5,34.9,30.00,SSE,163,1.0,1.0,53,0.00,,,0.01,Wunderground v.1.15,2013-02-14 19:30:00,
2013-02-14 14:35:00,51.3,36.6,30.00,SW,222,1.0,3.0,57,0.00,,,0.01,Wunderground v.1.15,2013-02-14 19:35:00,
2013-02-14 14:40:00,51.2,35.6,30.00,SSW,198,1.0,1.0,55,0.00,,,0.01,Wunderground v.1.15,2013-02-14 19:40:00,
2013-02-14 14:45:00,51.6,35.9,30.00,West,263,0.0,3.0,55,0.00,,,0.01,Wunderground v.1.15,2013-02-14 19:45:00,
2013-02-14 14:50:00,51.9,36.7,30.00,WSW,242,0.0,3.0,56,0.00,,,0.01,Wunderground v.1.15,2013-02-14 19:50:00,
2013-02-14 14:55:00,51.9,35.8,30.00,SW,221,1.0,3.0,54,0.00,,,0.01,Wunderground v.1.15,2013-02-14 19:55:00,
2013-02-14 15:00:00,51.9,36.7,30.00,South,179,1.0,3.0,56,0.00,,,0.01,Wunderground v.1.15,2013-02-14 20:00:00,
2013-02-14 15:05:00,52.0,36.3,30.01,South,173,1.0,3.0,55,0.00,,,0.01,Wunderground v.1.15,2013-02-14 20:05:00,
2013-02-14 15:10:00,51.5,35.4,30.00,SSW,200,2.0,2.0,54,0.00,,,0.01,Wunderground v.1.15,2013-02-14 20:10:00,
2013-02-14 15:15:00,51.5,36.3,30.00,South,175,2.0,3.0,56,0.00,,,0.01,Wunderground v.1.15,2013-02-14 20:15:00,
2013-02-14 15:20:00,51.7,36.5,30.01,WSW,254,1.0,6.0,56,0.00,,,0.01,Wunderground v.1.15,2013-02-14 20:20:00,
2013-02-14 15:25:00,51.5,35.4,30.00,South,185,2.0,6.0,54,0.00,,,0.01,Wunderground v.1.15,2013-02-14 20:25:00,
2013-02-14 15:30:00,51.5,35.9,30.00,SSW,212,2.0,2.0,55,0.00,,,0.01,Wunderground v.1.15,2013-02-14 20:30:00,
2013-02-14 15:35:00,51.7,36.0,30.00,SW,225,1.0,3.0,55,0.00,,,0.01,Wunderground v.1.15,2013-02-14 20:35:00,
2013-02-14 15:40:00,51.8,35.7,30.00,South,178,1.0,1.0,54,0.00,,,0.01,Wunderground v.1.15,2013-02-14 20:40:00,
2013-02-14 15:45:00,51.9,36.7,30.00,South,180,1.0,3.0,56,0.00,,,0.01,Wunderground v.1.15,2013-02-14 20:45:00,
2013-02-14 15:50:00,52.1,36.4,30.01,SW,219,1.0,3.0,55,0.00,,,0.01,Wunderground v.1.15,2013-02-14 20:50:00,
2013-02-14 15:55:00,51.9,35.8,30.01,SW,230,2.0,3.0,54,0.00,,,0.01,Wunderground v.1.15,2013-02-14 20:55:00,
2013-02-14 16:00:00,51.7,35.6,30.01,South,189,2.0,2.0,54,0.00,,,0.01,Wunderground v.1.15,2013-02-14 21:00:00,
2013-02-14 16:05:00,51.7,36.0,30.02,South,175,1.0,3.0,55,0.00,,,0.01,Wunderground v.1.15,2013-02-14 21:05:00,
2013-02-14 16:10:00,51.7,35.6,30.01,South,180,1.0,-999.0,54,0.00,,,0.01,Wunderground v.1.15,2013-02-14 21:10:00,
2013-02-14 16:15:00,51.3,35.2,30.00,South,180,1.0,-999.0,54,0.00,,,0.01,Wunderground v.1.15,2013-02-14 21:15:00,
2013-02-14 16:20:00,51.3,35.2,30.00,South,180,1.0,-999.0,54,0.00,,,0.01,Wunderground v.1.15,2013-02-14 21:20:00,
2013-02-14 16:25:00,51.3,35.2,30.00,South,180,1.0,-999.0,54,0.00,,,0.01,Wunderground v.1.15,2013-02-14 21:25:00,
2013-02-14 16:30:00,51.3,35.2,30.00,South,180,1.0,-999.0,54,0.00,,,0.01,Wunderground v.1.15,2013-02-14 21:30:00,
2013-02-14 16:35:00,51.3,35.2,30.00,South,180,1.0,-999.0,54,0.00,,,0.01,Wunderground v.1.15,2013-02-14 21:35:00,
2013-02-14 16:40:00,51.3,35.2,30.00,South,180,1.0,-999.0,54,0.00,,,0.01,Wunderground v.1.15,2013-02-14 21:40:00,
2013-02-14 16:45:00,52.0,37.7,30.01,WSW,248,1.0,-999.0,58,0.00,,,0.01,Wunderground v.1.15,2013-02-14 21:45:00,
2013-02-14 16:50:00,52.0,37.7,30.01,WSW,248,1.0,-999.0,58,0.00,,,0.01,Wunderground v.1.15,2013-02-14 21:50:00,
2013-02-14 16:55:00,52.0,37.7,30.01,WSW,248,1.0,-999.0,58,0.00,,,0.01,Wunderground v.1.15,2013-02-14 21:55:00,
2013-02-14 17:00:00,52.0,37.7,30.01,WSW,248,1.0,-999.0,58,0.00,,,0.01,Wunderground v.1.15,2013-02-14 22:00:00,
2013-02-14 17:05:00,52.0,37.7,30.01,WSW,248,1.0,-999.0,58,0.00,,,0.01,Wunderground v.1.15,2013-02-14 22:05:00,
2013-02-14 17:10:00,52.0,37.7,30.01,WSW,248,1.0,-999.0,58,0.00,,,0.01,Wunderground v.1.15,2013-02-14 22:10:00,
2013-02-14 17:15:00,51.1,35.5,30.00,WSW,248,2.0,-999.0,55,0.00,,,0.01,Wunderground v.1.15,2013-02-14 22:15:00,
2013-02-14 17:20:00,51.1,35.5,30.00,WSW,248,2.0,-999.0,55,0.00,,,0.01,Wunderground v.1.15,2013-02-14 22:20:00,
2013-02-14 17:25:00,51.1,35.5,30.00,WSW,248,2.0,-999.0,55,0.00,,,0.01,Wunderground v.1.15,2013-02-14 22:25:00,
2013-02-14 17:30:00,51.1,35.5,30.00,WSW,248,2.0,-999.0,55,0.00,,,0.01,Wunderground v.1.15,2013-02-14 22:30:00,
2013-02-14 17:35:00,51.1,35.5,30.00,WSW,248,2.0,-999.0,55,0.00,,,0.01,Wunderground v.1.15,2013-02-14 22:35:00,
2013-02-14 17:40:00,51.1,35.5,30.00,WSW,248,2.0,-999.0,55,0.00,,,0.01,Wunderground v.1.15,2013-02-14 22:40:00,
2013-02-14 17:45:00,49.7,35.5,30.00,SW,225,1.0,-999.0,58,0.00,,,0.01,Wunderground v.1.15,2013-02-14 22:45:00,
2013-02-14 17:50:00,49.7,35.5,30.00,SW,225,1.0,-999.0,58,0.00,,,0.01,Wunderground v.1.15,2013-02-14 22:50:00,
2013-02-14 17:55:00,49.7,35.5,30.00,SW,225,1.0,-999.0,58,0.00,,,0.01,Wunderground v.1.15,2013-02-14 22:55:00,
2013-02-14 18:00:00,49.7,35.5,30.00,SW,225,1.0,-999.0,58,0.00,,,0.01,Wunderground v.1.15,2013-02-14 23:00:00,
2013-02-14 18:05:00,49.7,35.5,30.00,SW,225,1.0,-999.0,58,0.00,,,0.01,Wunderground v.1.15,2013-02-14 23:05:00,
2013-02-14 18:10:00,49.7,35.5,30.00,SW,225,1.0,-999.0,58,0.00,,,0.01,Wunderground v.1.15,2013-02-14 23:10:00,
2013-02-14 18:15:00,46.9,35.7,30.01,SW,225,0.0,-999.0,65,0.00,,,0.01,Wunderground v.1.15,2013-02-14 23:15:00,
2013-02-14 18:20:00,46.9,35.7,30.01,SW,225,0.0,-999.0,65,0.00,,,0.01,Wunderground v.1.15,2013-02-14 23:20:00,
2013-02-14 18:25:00,46.9,35.7,30.01,SW,225,0.0,-999.0,65,0.00,,,0.01,Wunderground v.1.15,2013-02-14 23:25:00,
2013-02-14 18:30:00,46.9,35.7,30.01,SW,225,0.0,-999.0,65,0.00,,,0.01,Wunderground v.1.15,2013-02-14 23:30:00,
2013-02-14 18:35:00,46.9,35.7,30.01,SW,225,0.0,-999.0,65,0.00,,,0.01,Wunderground v.1.15,2013-02-14 23:35:00,
2013-02-14 18:40:00,46.9,35.7,30.01,SW,225,0.0,-999.0,65,0.00,,,0.01,Wunderground v.1.15,2013-02-14 23:40:00,
2013-02-14 18:45:00,44.7,35.1,30.02,SW,225,0.0,-999.0,69,0.00,,,0.01,Wunderground v.1.15,2013-02-14 23:45:00,
2013-02-14 18:50:00,44.7,35.1,30.02,SW,225,0.0,-999.0,69,0.00,,,0.01,Wunderground v.1.15,2013-02-14 23:50:00,
2013-02-14 18:55:00,44.7,35.1,30.02,SW,225,0.0,-999.0,69,0.00,,,0.01,Wunderground v.1.15,2013-02-14 23:55:00,
2013-02-14 19:00:00,44.7,35.1,30.02,SW,225,0.0,-999.0,69,0.00,,,0.01,Wunderground v.1.15,2013-02-15 00:00:00,
2013-02-14 19:05:00,44.7,35.1,30.02,SW,225,0.0,-999.0,69,0.00,,,0.01,Wunderground v.1.15,2013-02-15 00:05:00,
2013-02-14 19:10:00,44.7,35.1,30.02,SW,225,0.0,-999.0,69,0.00,,,0.01,Wunderground v.1.15,2013-02-15 00:10:00,
2013-02-14 19:15:00,43.3,34.9,30.01,N/A,-737280,0.0,-999.0,72,0.00,,,0.01,Wunderground v.1.15,2013-02-15 00:15:00,
2013-02-14 19:20:00,43.3,34.9,30.01,N/A,-737280,0.0,-999.0,72,0.00,,,0.01,Wunderground v.1.15,2013-02-15 00:20:00,
2013-02-14 19:25:00,43.3,34.9,30.01,N/A,-737280,0.0,-999.0,72,0.00,,,0.01,Wunderground v.1.15,2013-02-15 00:25:00,
2013-02-14 19:30:00,43.3,34.9,30.01,N/A,-737280,0.0,-999.0,72,0.00,,,0.01,Wunderground v.1.15,2013-02-15 00:30:00,
2013-02-14 19:35:00,43.3,34.9,30.01,N/A,-737280,0.0,-999.0,72,0.00,,,0.01,Wunderground v.1.15,2013-02-15 00:35:00,
2013-02-14 19:40:00,43.3,34.9,30.01,N/A,-737280,0.0,-999.0,72,0.00,,,0.01,Wunderground v.1.15,2013-02-15 00:40:00,
2013-02-14 19:45:00,42.4,35.4,30.02,WSW,248,0.0,-999.0,76,0.00,,,0.01,Wunderground v.1.15,2013-02-15 00:45:00,
2013-02-14 19:50:00,42.4,35.4,30.02,WSW,248,0.0,-999.0,76,0.00,,,0.01,Wunderground v.1.15,2013-02-15 00:50:00,
2013-02-14 19:55:00,42.4,35.4,30.02,WSW,248,0.0,-999.0,76,0.00,,,0.01,Wunderground v.1.15,2013-02-15 00:55:00,
2013-02-14 20:00:00,42.4,35.4,30.02,WSW,248,0.0,-999.0,76,0.00,,,0.01,Wunderground v.1.15,2013-02-15 01:00:00,
2013-02-14 20:05:00,42.4,35.4,30.02,WSW,248,0.0,-999.0,76,0.00,,,0.01,Wunderground v.1.15,2013-02-15 01:05:00,
2013-02-14 20:10:00,42.4,35.4,30.02,WSW,248,0.0,-999.0,76,0.00,,,0.01,Wunderground v.1.15,2013-02-15 01:10:00,
2013-02-14 20:15:00,41.9,35.5,30.03,WSW,248,0.0,-999.0,78,0.00,,,0.01,Wunderground v.1.15,2013-02-15 01:15:00,
2013-02-14 20:20:00,41.9,35.5,30.03,WSW,248,0.0,-999.0,78,0.00,,,0.01,Wunderground v.1.15,2013-02-15 01:20:00,
2013-02-14 20:25:00,41.9,35.5,30.03,WSW,248,0.0,-999.0,78,0.00,,,0.01,Wunderground v.1.15,2013-02-15 01:25:00,
2013-02-14 20:30:00,41.9,35.5,30.03,WSW,248,0.0,-999.0,78,0.00,,,0.01,Wunderground v.1.15,2013-02-15 01:30:00,
2013-02-14 20:35:00,41.9,35.5,30.03,WSW,248,0.0,-999.0,78,0.00,,,0.01,Wunderground v.1.15,2013-02-15 01:35:00,
2013-02-14 20:40:00,41.9,35.5,30.03,WSW,248,0.0,-999.0,78,0.00,,,0.01,Wunderground v.1.15,2013-02-15 01:40:00,
2013-02-14 20:45:00,42.5,36.4,30.05,WSW,248,0.0,-999.0,79,0.00,,,0.01,Wunderground v.1.15,2013-02-15 01:45:00,
2013-02-14 20:50:00,42.5,36.4,30.05,WSW,248,0.0,-999.0,79,0.00,,,0.01,Wunderground v.1.15,2013-02-15 01:50:00,
2013-02-14 20:55:00,42.5,36.4,30.05,WSW,248,0.0,-999.0,79,0.00,,,0.01,Wunderground v.1.15,2013-02-15 01:55:00,
2013-02-14 21:00:00,42.5,36.4,30.05,WSW,248,0.0,-999.0,79,0.00,,,0.01,Wunderground v.1.15,2013-02-15 02:00:00,
2013-02-14 21:05:00,42.5,36.4,30.05,WSW,248,0.0,-999.0,79,0.00,,,0.01,Wunderground v.1.15,2013-02-15 02:05:00,
2013-02-14 21:10:00,42.5,36.4,30.05,WSW,248,0.0,-999.0,79,0.00,,,0.01,Wunderground v.1.15,2013-02-15 02:10:00,
2013-02-14 21:15:00,42.1,36.4,30.06,WSW,248,0.0,-999.0,80,0.00,,,0.01,Wunderground v.1.15,2013-02-15 02:15:00,
2013-02-14 21:20:00,42.1,36.4,30.06,WSW,248,0.0,-999.0,80,0.00,,,0.01,Wunderground v.1.15,2013-02-15 02:20:00,
2013-02-14 21:25:00,42.1,36.4,30.06,WSW,248,0.0,-999.0,80,0.00,,,0.01,Wunderground v.1.15,2013-02-15 02:25:00,
2013-02-14 21:30:00,42.1,36.4,30.06,WSW,248,0.0,-999.0,80,0.00,,,0.01,Wunderground v.1.15,2013-02-15 02:30:00,
2013-02-14 21:35:00,42.1,36.4,30.06,WSW,248,0.0,-999.0,80,0.00,,,0.01,Wunderground v.1.15,2013-02-15 02:35:00,
2013-02-14 21:40:00,42.1,36.4,30.06,WSW,248,0.0,-999.0,80,0.00,,,0.01,Wunderground v.1.15,2013-02-15 02:40:00,
2013-02-14 21:45:00,42.8,37.1,30.07,WSW,248,0.0,-999.0,80,0.00,,,0.01,Wunderground v.1.15,2013-02-15 02:45:00,
2013-02-14 21:50:00,42.8,37.1,30.07,WSW,248,0.0,-999.0,80,0.00,,,0.01,Wunderground v.1.15,2013-02-15 02:50:00,
2013-02-14 21:55:00,42.8,37.1,30.07,WSW,248,0.0,-999.0,80,0.00,,,0.01,Wunderground v.1.15,2013-02-15 02:55:00,
2013-02-14 22:00:00,42.8,37.1,30.07,WSW,248,0.0,-999.0,80,0.00,,,0.01,Wunderground v.1.15,2013-02-15 03:00:00,
2013-02-14 22:05:00,42.8,37.1,30.07,WSW,248,0.0,-999.0,80,0.00,,,0.01,Wunderground v.1.15,2013-02-15 03:05:00,
2013-02-14 22:10:00,42.8,37.1,30.07,WSW,248,0.0,-999.0,80,0.00,,,0.01,Wunderground v.1.15,2013-02-15 03:10:00,
2013-02-14 22:15:00,43.7,37.6,30.06,SW,225,0.0,-999.0,79,0.00,,,0.01,Wunderground v.1.15,2013-02-15 03:15:00,
2013-02-14 22:20:00,43.7,37.6,30.06,SW,225,0.0,-999.0,79,0.00,,,0.01,Wunderground v.1.15,2013-02-15 03:20:00,
2013-02-14 22:25:00,43.7,37.6,30.06,SW,225,0.0,-999.0,79,0.00,,,0.01,Wunderground v.1.15,2013-02-15 03:25:00,
2013-02-14 22:30:00,43.7,37.6,30.06,SW,225,0.0,-999.0,79,0.00,,,0.01,Wunderground v.1.15,2013-02-15 03:30:00,
2013-02-14 22:35:00,43.7,37.6,30.06,SW,225,0.0,-999.0,79,0.00,,,0.01,Wunderground v.1.15,2013-02-15 03:35:00,
2013-02-14 22:40:00,43.7,37.6,30.06,SW,225,0.0,-999.0,79,0.00,,,0.01,Wunderground v.1.15,2013-02-15 03:40:00,
2013-02-14 22:45:00,43.3,37.5,30.06,SW,225,0.0,-999.0,80,0.00,,,0.01,Wunderground v.1.15,2013-02-15 03:45:00,
2013-02-14 22:50:00,43.3,37.5,30.06,SW,225,0.0,-999.0,80,0.00,,,0.01,Wunderground v.1.15,2013-02-15 03:50:00,
2013-02-14 22:55:00,43.3,37.5,30.06,SW,225,0.0,-999.0,80,0.00,,,0.01,Wunderground v.1.15,2013-02-15 03:55:00,
2013-02-14 23:00:00,43.3,37.5,30.06,SW,225,0.0,-999.0,80,0.00,,,0.01,Wunderground v.1.15,2013-02-15 04:00:00,
2013-02-14 23:05:00,43.3,37.5,30.06,SW,225,0.0,-999.0,80,0.00,,,0.01,Wunderground v.1.15,2013-02-15 04:05:00,
2013-02-14 23:10:00,43.3,37.5,30.06,SW,225,0.0,-999.0,80,0.00,,,0.01,Wunderground v.1.15,2013-02-15 04:10:00,
2013-02-14 23:15:00,43.4,38.0,30.06,WSW,248,0.0,-999.0,81,0.00,,,0.01,Wunderground v.1.15,2013-02-15 04:15:00,
2013-02-14 23:20:00,43.4,38.0,30.06,WSW,248,0.0,-999.0,81,0.00,,,0.01,Wunderground v.1.15,2013-02-15 04:20:00,
2013-02-14 23:25:00,43.4,38.0,30.06,WSW,248,0.0,-999.0,81,0.00,,,0.01,Wunderground v.1.15,2013-02-15 04:25:00,
2013-02-14 23:30:00,43.4,38.0,30.06,WSW,248,0.0,-999.0,81,0.00,,,0.01,Wunderground v.1.15,2013-02-15 04:30:00,
2013-02-14 23:35:00,43.4,38.0,30.06,WSW,248,0.0,-999.0,81,0.00,,,0.01,Wunderground v.1.15,2013-02-15 04:35:00,
2013-02-14 23:40:00,43.4,38.0,30.06,WSW,248,0.0,-999.0,81,0.00,,,0.01,Wunderground v.1.15,2013-02-15 04:40:00,
2013-02-14 23:45:00,42.5,37.1,30.07,WSW,248,0.0,-999.0,81,0.00,,,0.01,Wunderground v.1.15,2013-02-15 04:45:00,
2013-02-14 23:50:00,42.5,37.1,30.07,WSW,248,0.0,-999.0,81,0.00,,,0.01,Wunderground v.1.15,2013-02-15 04:50:00,
2013-02-14 23:55:00,42.5,37.1,30.07,WSW,248,0.0,-999.0,81,0.00,,,0.01,Wunderground v.1.15,2013-02-15 04:55:00,